Incline Creek, Nevada Weather observations

Data are for observation ending at time listed.
 Day   Time    Ave.   Ave.  Ave.  Vector   Max.   Stn.    Total    Solar   Ave.   Snow 
  of    of     Air    Rel.  Wind   Wind    Wind   Baro.  Precip.   Rad.    Soil   Depth
Year   Day     Temp.  Hum.  Speed  Dir.    Gust   Pres.                    Temp.       
2015   (PST)    F      %     mph   deg.    mph     mb.     in.     W/m2     F      in. 
---------------------------------------------------------------------------------------  
  90    8:40   46.9    27    8.2   125     17.8   999.0    0.00     552    999.0    0.0
  90    8:50   46.7    28    7.7   118     17.9   999.0    0.00     583    999.0    0.0
  90    9:00   46.9    29    7.6   118     21.4   999.0    0.00     611    999.0    0.0
  90    9:10   47.2    29    8.5   116     17.1   999.0    0.00     639    999.0    0.0
  90    9:20   47.4    29    7.4   112     15.0   999.0    0.00     666    999.0    0.0
  90    9:30   47.9    29    8.1   115     19.2   999.0    0.00     694    999.0    0.0
  90    9:40   48.1    29    8.1   107     18.2   999.0    0.00     717    999.0    0.0
  90    9:50   48.3    30    7.7   108     16.6   999.0    0.00     740    999.0    0.0
  90   10:00   48.4    31    7.7   110     16.5   999.0    0.00     762    999.0    0.0
  90   10:10   48.6    32    8.1   104     15.0   999.0    0.00     780    999.0    0.0
  90   10:20   48.5    32    9.0   112     17.4   999.0    0.00     799    999.0   83.9
  90   10:30   48.1    34    8.9   118     20.4   999.0    0.00     820    999.0    0.0
  90   10:40   48.5    34    8.5   120     19.9   999.0    0.00     836    999.0   83.9
  90   10:50   48.3    35    8.7   119     16.8   999.0    0.00     851    999.0    0.0
  90   11:00   48.7    35    8.0   122     18.4   999.0    0.00     864    999.0    0.0
  90   11:10   48.4    36    9.3   126     19.1   999.0    0.00     875    999.0    0.0
  90   11:20   48.8    37    8.9   126     21.4   999.0    0.00     882    999.0    0.0
  90   11:30   49.2    36    8.4   117     17.5   999.0    0.00     888    999.0    0.0
  90   11:40   49.5    33    8.3   113     16.3   999.0    0.00     895    999.0    0.0
  90   11:50   49.3    30    9.8   126     16.3   999.0    0.00     900    999.0    0.0
  90   12:00   49.7    29    9.4   124     16.4   999.0    0.00     900    999.0    0.0
  90   12:10   49.6    28    8.0   122     19.4   999.0    0.00     900    999.0    0.0
  90   12:20   49.7    26    9.0   132     19.2   999.0    0.00     892    999.0    0.0
  90   12:30   49.8    27    7.7   125     15.4   999.0    0.00     887    999.0    0.0
  90   12:40   50.4    24    8.4   129     19.7   999.0    0.00     880    999.0    0.0
  90   12:50   50.3    22    8.7   119     17.5   999.0    0.00     876    999.0   83.9
  90   13:00   50.0    20    8.9   121     18.5   999.0    0.00     870    999.0    0.0
  90   13:10   50.3    20    9.1   120     17.4   999.0    0.00     862    999.0    0.0
  90   13:20   50.1    17    9.3   119     21.9   999.0    0.01     850    999.0    0.0
  90   13:30   50.2    18    8.9   122     15.3   999.0    0.00     838    999.0    0.0
  90   13:40   50.1    19    8.8   120     20.6   999.0    0.00     825    999.0    0.0
  90   13:50   50.3    20    9.7   115     22.3   999.0    0.00     802    999.0    0.0
  90   14:00   50.0    20    8.7   123     15.7   999.0    0.00     788    999.0    0.0
  90   14:10   50.1    21    8.0   136     19.6   999.0    0.00     767    999.0    0.0
  90   14:20   49.4    22    9.2   133     18.0   999.0    0.00     746    999.0    0.0
  90   14:30   49.3    24    7.2   128     16.0   999.0    0.00     722    999.0    0.0
  90   14:40   49.3    23    7.4   133     16.7   999.0    0.00     695    999.0    0.0
  90   14:50   48.8    25    8.7   132     17.0   999.0    0.00     667    999.0    0.0
  90   15:00   49.0    26    8.3   147     21.3   999.0    0.00     643    999.0    0.0
  90   15:10   48.6    28    8.7   138     15.5   999.0    0.00     616    999.0    0.0
  90   15:20   48.5    28    6.7   137     14.2   999.0    0.00     586    999.0    0.0
  90   15:30   48.6    29    7.5   125     16.0   999.0    0.00     556    999.0    0.0
  90   15:40   48.3    29    7.2   124     18.0   999.0    0.00     525    999.0    0.0
  90   15:50   47.9    31    7.2   118     13.1   999.0    0.00     491    999.0    0.0
  90   16:00   47.9    32    7.3   123     17.5   999.0    0.00     454    999.0    0.0
  90   16:10   47.5    34    8.4   123     18.7   999.0    0.00     418    999.0    0.0
  90   16:20   46.9    36    7.9   118     17.8   999.0    0.00     388    999.0    0.0
  90   16:30   46.4    39    8.8   115     16.2   999.0    0.00     303    999.0    0.0
  90   16:40   45.2    42    9.8   113     19.9   999.0    0.00      58    999.0    0.0
  90   16:50   44.5    44    9.8   114     20.2   999.0    0.00      38    999.0    0.0
  90   17:00   43.8    48   10.4   116     21.7   999.0    0.00      35    999.0    0.0
  90   17:10   43.0    52   10.3   113     19.8   999.0    0.00      31    999.0    0.0
  90   17:20   42.6    53    9.0   105     14.7   999.0    0.00      28    999.0    0.0
  90   17:30   42.1    53    7.5   101     19.7   999.0    0.00      25    999.0    0.0
  90   17:40   41.6    53    7.7   115     15.7   999.0    0.00      22    999.0    0.0
  90   17:50   41.1    54    6.0   115     15.0   999.0    0.00      19    999.0    0.0
  90   18:00   40.6    54    6.7   112     14.3   999.0    0.00      16    999.0    0.0
  90   18:10   40.0    58    5.8   128     13.6   999.0    0.00      11    999.0    0.0
  90   18:20   39.4    58    6.3   129     11.9   999.0    0.00       7    999.0    0.0
  90   18:30   38.9    60    7.1   131     13.9   999.0    0.00       3    999.0    0.0
  90   18:40   38.7    58    5.1   123     11.5   999.0    0.00       1    999.0    0.0
  90   18:50   38.3    58    4.0   110      9.8   999.0    0.00       0    999.0    0.0
  90   19:00   38.1    60    3.8   115     10.0   999.0    0.00       0    999.0    0.0
  90   19:10   37.6    61    3.5   108     10.6   999.0    0.00       0    999.0    0.0
  90   19:20   37.5    55    3.9   129     11.1   999.0    0.00       0    999.0    0.0
  90   19:30   36.9    55    1.2   140      3.8   999.0    0.00       0    999.0    0.0
  90   19:40   36.1    58    1.2    83      4.6   999.0    0.00       0    999.0    0.0
  90   19:50   35.3    60    1.3   170      3.3   999.0    0.00       0    999.0    0.0
  90   20:00   35.1    61    1.6   112      5.1   999.0    0.00       0    999.0    0.0
  90   20:10   34.2    63    1.0   290      2.5   999.0    0.00       0    999.0    0.0
  90   20:20   33.4    65    0.7   341      2.3   999.0    0.00       0    999.0    0.0
  90   20:30   32.9    65    1.2   319      1.9   999.0    0.00       0    999.0    0.0
  90   20:40   32.1    66    1.3   328      3.2   999.0    0.00       0    999.0    0.0
  90   20:50   31.3    68    1.5   306      2.8   999.0    0.00       0    999.0    0.0
  90   21:00   30.8    68    1.3   359      2.5   999.0    0.00       0    999.0    0.0
  90   21:10   30.2    68    1.4     7      2.5   999.0    0.00       0    999.0    0.0
  90   21:20   29.4    68    1.2    27      2.4   999.0    0.00       0    999.0    0.0
  90   21:30   28.9    68    1.3    10      2.7   999.0    0.00       0    999.0    0.0
  90   21:40   28.3    68    2.6    14      3.8   999.0    0.00       0    999.0    0.0
  90   21:50   28.0    68    1.4    30      2.6   999.0    0.00       0    999.0    0.0
  90   22:00   27.6    70    1.1    35      1.7   999.0    0.00       0    999.0    0.0
  90   22:10   27.6    69    1.4    28      2.3   999.0    0.00       0    999.0    0.0
  90   22:20   27.5    70    1.6    27      3.3   999.0    0.00       0    999.0    0.0
  90   22:30   27.5    70    1.3    44      2.3   999.0    0.00       0    999.0    0.0
  90   22:40   27.4    69    1.6    34      2.9   999.0    0.00       0    999.0    0.0
  90   22:50   27.3    69    1.4    31      2.0   999.0    0.00       0    999.0    0.0
  90   23:00   27.5    68    1.5    32      2.3   999.0    0.00       0    999.0    0.0
  90   23:10   27.5    67    1.5    24      2.2   999.0    0.00       0    999.0    0.0
  90   23:20   27.2    68    0.9    40      1.7   999.0    0.00       0    999.0    0.0
  90   23:30   27.0    68    1.3    13      2.2   999.0    0.00       0    999.0    0.0
  90   23:40   27.0    68    1.9    17      3.0   999.0    0.00       0    999.0    0.0
  90   23:50   27.9    66    2.6   311      7.3   999.0    0.00       0    999.0    0.0
  91    0:00   27.8    66    2.1     3      3.8   999.0    0.00       0    999.0    0.0
  91    0:10   27.7    65    2.4   334      5.0   999.0    0.00       0    999.0    0.0
  91    0:20   28.0    65    2.3   322      3.7   999.0    0.00       0    999.0    0.0
  91    0:30   27.4    66    1.4   333      1.9   999.0    0.00       0    999.0    0.0
  91    0:40   27.8    66    2.0   345      6.4   999.0    0.00       0    999.0    0.0
  91    0:50   27.9    67    2.2    11      4.4   999.0    0.00       0    999.0    0.0
  91    1:00   27.4    68    1.8    18      5.8   999.0    0.00       0    999.0    0.0
  91    1:10   27.2    68    2.2   352      4.6   999.0    0.00       0    999.0    0.0
  91    1:20   27.7    67    1.9   356      2.7   999.0    0.00       0    999.0    0.0
  91    1:30   27.6    67    2.0   343      4.6   999.0    0.00       0    999.0    0.0
  91    1:40   27.7    66    1.6   337      3.4   999.0    0.00       0    999.0    0.0
  91    1:50   27.4    68    1.5   324      6.2   999.0    0.00       0    999.0    0.0
  91    2:00   27.6    70    1.4   356      3.4   999.0    0.00       0    999.0    0.0
  91    2:10   27.2    70    1.1     6      2.9   999.0    0.00       0    999.0    0.0
  91    2:20   27.1    69    1.6    21      3.5   999.0    0.00       0    999.0    0.0
  91    2:30   26.7    68    1.6     7      2.8   999.0    0.00       0    999.0    0.0
  91    2:40   26.6    69    1.6     5      2.6   999.0    0.00       0    999.0    0.0
  91    2:50   26.5    69    1.4   324      2.9   999.0    0.00       0    999.0    0.0
  91    3:00   26.5    69    2.1   301      5.5   999.0    0.00       0    999.0    0.0
  91    3:10   26.9    68    1.4   348      3.2   999.0    0.00       0    999.0    0.0
  91    3:20   27.1    68    2.0   305      6.6   999.0    0.00       0    999.0    0.0
  91    3:30   28.1    67    2.9   306      8.3   999.0    0.00       0    999.0    0.0
  91    3:40   28.6    66    2.7   301      5.9   999.0    0.00       0    999.0    0.0
  91    3:50   28.2    67    2.8   314      9.7   999.0    0.00       0    999.0    0.0
  91    4:00   28.5    67    1.9   302      5.7   999.0    0.00       0    999.0    0.0
  91    4:10   27.6    68    1.4   338      3.5   999.0    0.00       0    999.0    0.0
  91    4:20   27.6    68    1.7     0      5.7   999.0    0.00       0    999.0    0.0
  91    4:30   27.6    68    1.4     1      3.8   999.0    0.00       0    999.0    0.0
  91    4:40   26.6    71    1.5    14      3.0   999.0    0.00       0    999.0    0.0
  91    4:50   26.0    73    0.6   351      1.9   999.0    0.00       0    999.0    0.0
  91    5:00   26.3    72    1.1    22      3.1   999.0    0.00       0    999.0    0.0
  91    5:10   26.7    69    1.9   358      4.7   999.0    0.00       0    999.0    0.0
  91    5:20   27.0    67    1.5    25      5.3   999.0    0.00       0    999.0    0.0
  91    5:30   27.4    66    1.5   350      5.2   999.0    0.00       0    999.0    0.0
  91    5:40   26.8    68    1.1     7      3.2   999.0    0.00       1    999.0    0.0
  91    5:50   26.3    69    0.7    34      2.6   999.0    0.00       3    999.0    0.0
  91    6:00   26.1    70    1.4   343      4.0   999.0    0.00       7    999.0    0.0
  91    6:10   26.9    69    2.3   325      4.1   999.0    0.00      11    999.0    0.0
  91    6:20   27.0    68    1.9   335      3.9   999.0    0.00      16    999.0    0.0
  91    6:30   27.2    67    2.2   335      6.0   999.0    0.00      20    999.0    0.0
  91    6:40   27.2    67    1.9   340      4.6   999.0    0.00      23    999.0    0.0
  91    6:50   27.2    67    2.0   331      4.4   999.0    0.00      35    999.0    0.0
  91    7:00   27.5    68    0.8   355      2.5   999.0    0.00      66    999.0    0.0
  91    7:10   27.8    68    1.3    26      4.2   999.0    0.00      95    999.0    0.0
  91    7:20   29.9    63    1.2    80      3.2   999.0    0.00     274    999.0    0.0
  91    7:30   31.1    60    1.3    48      2.5   999.0    0.00     266    999.0    0.0
  91    7:40   31.7    58    1.4    92      3.4   999.0    0.00     313    999.0    0.0
  91    7:50   32.7    56    1.7   104      4.6   999.0    0.00     386    999.0    0.0
  91    8:00   33.8    53    1.3   142      5.3   999.0    0.00     443    999.0    0.0
  91    8:10   33.7    51    2.7   326      5.5   999.0    0.00     396    999.0    0.0
  91    8:20   34.1    50    2.7     3      6.6   999.0    0.00     463    999.0    0.0
  91    8:30   34.1    50    3.6   358      8.1   999.0    0.00     444    999.0    0.0

Return to Incline Creek graphs page.


Western Regional Climate Center,wrcc@dri.edu